www.pogodaiklimat.ru

Погода и климат >> Архив погоды >> Эквадор >> Santa Rosa


ПОГОДА в Santa Rosa

  • Прогноз погоды в Santa Rosa
  • Монитор погоды в Santa Rosa
  • Климат города

АРХИВ ПОГОДЫ в Santa Rosa

Время (UTC), дата Ветер
(напр.,м/с)
 
Видим.   Явления Облачность Т
(С)
Тd
(С)
f
(%)
Тe
(С)
Тes
(С)
Комфортность P
(гПа)
Po
(гПа)
Тmin
(С)
Tmax
(С)
R
(мм)
R24
(мм)
S
(см)
12 12.12 СЗ 4 10 км мгла {туман} 10/10 300 м
[Cu Sc]
+24.1 +21.4 85 +31 +31 очень
душно
1013.1 1012.3 +22.6 0.0
15 12.12 СЗ 5 10 км мгла {туман} 10/10 300 м
[Cu Sc]
+25.0 +21.3 80 +32 +32 очень
душно
1013.9 1013.1
18 12.12 СЗ 5 10 км мгла {туман} 10/10 300 м
[Cu Sc]
+26.2 +21.4 75 +33 +33 очень
душно
1012.3 1011.5
21 12.12 СЗ 4 12 км мгла {туман} 10/10 300 м
[Cu Sc]
+26.2 +21.7 76 +34 +34 очень
душно
1010.7 1009.9 +27.1
00 13.12 С 4 10 км мгла {туман} 10/4 600 м
[Sc As op]
+25.2 +21.8 81 +32 +32 очень
душно
1011.2 1010.4 +27.1
12 13.12 штиль 0 12 км сильная морось {туман} 10/6 600 м
[Sc As op]
+24.0 +22.3 90 +31 +31 очень
душно
1012.0 +23.5
15 13.12 СВ 4 12 км мгла {туман} 8/1 300 м
[Cu hum Ac trans]
+26.6 +22.1 76 +34 +39 очень
душно
1013.9 1013.1
18 13.12 С 9 12 км мгла {туман} 5/1 300 м
[Cu hum Ac trans Ci sp]
+30.8 +21.9 59 +39 +41 очень
душно
1011.3 1010.5
21 13.12 СЗ 3 12 км мгла {туман} 10/6 300 м
[Cu Sc As op]
+27.3 +22.1 73 +35 +36 очень
душно
1010.7 1009.9 +31.4
12 14.12 штиль 0 12 км мгла {туман} 6/3 300 м
[Sc diur, vesp Ac trans]
+22.9 +21.6 92 +31 +31 очень
душно
1013.3 1012.5 +22.9 0.0
15 14.12 З 4 8000 м слабая морось {туман} 10/10 300 м
[Cu Sc]
+25.3 +22.5 84 +33 +33 очень
душно
1014.3 1013.5
18 14.12 С 8 10 км мгла {морось, туман} 10/10 300 м
[Cu Sc]
+26.6 +22.4 78 +35 +35 очень
душно
1012.7 1011.9
21 14.12 С 5 12 км мгла {туман} 9/5 300 м
[Cu Sc Ac trans]
+27.3 +22.0 73 +35 +36 очень
душно
1010.6 1009.8 +27.7
12 15.12 штиль 0 12 км мгла {туман} 8/3 300 м
[Cu Sc Ac trans]
+23.8 +22.4 92 +31 +31 очень
душно
1013.0 1012.2 +23.4 0.0
18 15.12 СЗ 10 12 км мгла {туман} 5/1 300 м
[Cu hum Ac trans]
+31.5 +22.2 58 +41 +41 опасность
перегрева
1010.3 1009.5
21 15.12 З 8 12 км мгла {туман} 10/6 600 м
[Sc Ac As]
+29.1 +22.3 67 +38 +38 очень
душно
1008.9 1008.1 +32.3
12 16.12 В 2 10 км мгла {туман} 9/9 300 м
[Cu med, cong]
+24.7 +22.6 88 +32 +33 очень
душно
1013.7 1012.9 +23.4 0.0
15 16.12 С 6 10 км мгла {туман} 9/9 300 м
[Sc]
+26.8 +22.6 78 +35 +36 очень
душно
1014.3 1013.5
18 16.12 СЗ 2 10 км мгла {туман} 5/4 300 м
[Cu med, cong Ac trans]
+29.7 +22.3 65 +39 +49 очень
душно
1011.4 1010.6
21 16.12 СЗ 7 12 км мгла {туман} 8/1 600 м
[Cu med, cong Ac trans]
+30.2 +21.8 61 +39 +40 очень
душно
1008.5 1007.7 +31.7
00 17.12 З 7 10 км осадки на расстоянии {туман} 10/6 300 м
[Cu Sc As op]
+26.6 +23.3 82 +36 +36 очень
душно
1011.0 1010.2 +31.7
12 17.12 В 2 12 км мгла {туман} 6/1 300 м
[Cu hum Ac trans]
+24.6 +22.6 89 +32 +33 очень
душно
1012.0 1011.2 +24.2
18 17.12 С 5 12 км мгла {туман} 9/4 300 м
[Cu Sc Ac trans Cc]
+29.3 +22.6 67 +39 +42 очень
душно
1011.3 1010.5
21 17.12 СЗ 7 12 км мгла {туман} 10/6 300 м
[Cu Sc Ac As]
+28.7 +22.9 71 +38 +38 очень
душно
1009.0 1008.2 +30.3
15 18.12 С 6 10 км мгла {туман} 10/10 300 м
[Cu Sc]
+26.1 +21.7 77 +34 +34 очень
душно
1013.4 1012.6
18 18.12 СЗ 6 10 км мгла {туман} 10/10 300 м
[Cu Sc]
+27.4 +22.1 73 +36 +36 очень
душно
1011.6 1010.8
21 18.12 СЗ 9 12 км мгла {туман} 10/8 300 м
[Cu Sc Ac As]
+27.8 +21.4 68 +35 +35 очень
душно
1009.6 1008.8 +29.1

 

Местоположение метеостанции Santa Rosa (Эквадор): широта -3.43 долгота -79.98 высота над уровнем моря 7 м.

В архиве по умолчанию представлена погода в Santa Rosa за последнюю неделю. Архивные данные за месяц целиком и за предыдущие месяцы, начиная с января 2011 года, Вы можете получить, выбрав интересующий диапазон дат из раскрывающегося списка и нажав кнопку "Ввод!".


*Определитесь, кто Вы:
робот инопланетянин человек

Внимание! Время в таблицах - всемирное. Для получения местного времени необходимо прибавить поправку, которая в Santa Rosa равна -5 ч.

Смотрите также архив погоды в соседних городах и на ближайших метеорологических станциях:

Погода в Machala (Эквадор) (20 км)
Погода в Tumbes (Перу) (49 км)
Погода в Catamayo (Эквадор) (92 км)
Погода в Catamayo (Эквадор) (94 км)
Погода в Loja (Эквадор) (109 км)
Погода в Cuenca (Эквадор) (127 км)
Погода в Guayaquil Aeropuerto (Эквадор) (142 км)
Погода в Guayaquil (Эквадор) (143 км)
Погода в Milagro (Эквадор) (152 км)
Погода в Canar (Эквадор) (152 км)

Пояснения к столбцам:

Ветер - указаны скорость ветра в м/с - средняя за 10 мин, порывы в срок и между сроками (в фигурных скобках) и направление, откуда дует ветер: С - северный, СВ - северо-восточный, В - восточный, ЮВ - юго-восточный, Ю - южный, ЮЗ - юго-западный, З - западный, СЗ - северо-западный.
Видимость - горизонтальная дальность видимости в метрах или километрах. При видимости от 1 до 10 км при отсутствии осадков обычно наблюдается дымка, при ухудшении видимости до 1 км и менее - туман. В сухую погоду видимость может ухудшаться дымом, пылью или мглою.
Явления - указаны атмосферные явления, наблюдавшиеся в срок или в последний час перед сроком; фигурными скобками обозначены явления, наблюдавшиеся между сроками (за 1-3 часа до срока); квадратными скобками обозначены град или гололедные отложения с указанием их диаметра в мм.
Облачность - указаны через наклонную черту общая и нижняя облачность в баллах и высота нижней границы облаков в метрах; квадратными скобками обозначены формы облаков: Ci - перистые, Cs - перисто-слоистые, Cc - перисто-кучевые, Ac - высококучевые, As - высокослоистые, Sc - слоисто-кучевые, Ns - слоисто-дождевые, Cu - кучевые, Cb - кучево-дождевые. Подробнее классификацию облаков см. в Атласе облаков (PDF).
T - Температура воздуха - температура, измеренная на высоте 2 м над землей.
Td - Температура точки росы - температура, при понижении до которой содержащийся в воздухе водяной пар достигнет насыщения.
f - Относительная влажность воздуха - влажноcть воздуха, измеренная на высоте 2 м над землей.
Te - Эффективная температура - температура, которую ощущает одетый по сезону человек в тени. Характеристика душности погоды. При расчете учитывается влияние влажности воздуха и скорости ветра на теплоощущения человека.
Tes - Эффективная температура на солнце - температура, которую ощущает человек, с поправкой на солнечный нагрев. Характеристика знойности погоды. Зависит от высоты солнца над горизонтом, облачности и скорости ветра. Ночью, в пасмурную погоду, а также при ветре 12 м/с и более поправка равна нулю.
P - Атмосферное давление - приведенное к уровню моря атмосферное давление.
Po - Атмосферное давление - измеренное на уровне метеостанции атмосферное давление.
Tmin - Минимальная температура - минимум температуры воздуха на высоте 2 м над землей.
Tmax - Максимальная температура - максимум температуры воздуха на высоте 2 м над землей.
R - Количество осадков - Количество выпавших осадков за период времени, мм. При наведении курсора мыши на число - период времени, за который выпало указанное количество осадков.
R24 - Количество осадков - Количество выпавших осадков за 24 часа, мм.
S - Снежный покров - Высота снежного покрова, см. При наведении курсора мыши на число - состояние снежного покрова и степень покрытия местности в баллах.